Flag for India Past Weather in Thiruvananthapuram, Kerala, India — Yesterday and Last 2 Weeks

Now
81 °F

Passing clouds.


Feels Like: 86 °F
Forecast: 78 / 83 °F
Wind: 7 mph from Northwest

Location: Thiruvananthapuram

Current Time: Jul 1, 2016 at 10:45:28 PM

Latest Report: Jul 1, 2016 at 10:00 PM


Visibility: 2 mi

Pressure: 29.80 "Hg

Humidity: 84%

Dew Point: 75 °F

Location of ThiruvananthapuramLocation

Past Weather in Thiruvananthapuram — Graph

°F

Thiruvananthapuram Temperature Yesterday

Maximum temperature yesterday: 88 °F (at 1:00 PM)
Minimum temperature yesterday: 75 °F (at 5:00 AM)
Average temperature yesterday: 83 °F

High & Low Weather Summary for the Past Weeks

 TemperatureHumidityPressure
High90 °F (Jul 1, 12:30 PM)100% (Jun 17, 5:30 PM)29.86 "Hg (Jun 17, 5:30 PM)
Low73 °F (Jun 23, 12:30 AM)59% (Jun 21, 1:30 PM)29.65 "Hg (Jun 20, 4:30 PM)
Average81 °F84%29.76 "Hg
* Reported Jun 16 9:30 PM — Jul 1 9:30 PM, Thiruvananthapuram, Weather by CustomWeather, © 2016

Note: Actual official high and low records may vary slightly from our data, if they occured in-between our weather recording intervals... More about our weather records

Advertising

Thiruvananthapuram Weather History for the Previous 24 Hours

Scroll right to see more
 ConditionsComfort  
Time TempWeatherWind HumidityBarometerVisibility
9:30 PM
Fri, Jul 1
79 °FPassing clouds.7 mph89%29.80 "Hg2 mi
9:00 PM79 °FPassing clouds.7 mph89%29.80 "Hg2 mi
8:30 PM79 °FPartly cloudy.6 mph89%29.80 "Hg2 mi
7:00 PM79 °FBroken clouds.7 mph89%29.77 "Hg2 mi
6:30 PM79 °FBroken clouds.8 mph89%29.77 "Hg2 mi
6:00 PM77 °FScattered clouds.9 mph89%29.77 "Hg2 mi
5:30 PM77 °FLight rain. Scattered clouds.16 mph89%29.74 "Hg1 mi
4:30 PM84 °FBroken clouds.12 mph84%29.74 "Hg3 mi
4:00 PM86 °FScattered clouds.12 mph79%29.71 "Hg3 mi
3:30 PM86 °FScattered clouds.16 mph79%29.71 "Hg3 mi
3:00 PM88 °FScattered clouds.16 mph75%29.74 "Hg3 mi
2:30 PM88 °FScattered clouds.13 mph75%29.74 "Hg3 mi
2:00 PM88 °FScattered clouds.15 mph75%29.74 "Hg3 mi
1:30 PM88 °FScattered clouds.12 mph75%29.74 "Hg3 mi
1:00 PM88 °FScattered clouds.15 mph75%29.77 "Hg3 mi
12:30 PM90 °FScattered clouds.14 mph71%29.77 "Hg3 mi
12:00 PM88 °FScattered clouds.14 mph79%29.77 "Hg3 mi
11:30 AM88 °FScattered clouds.13 mph75%29.80 "Hg3 mi
11:00 AM88 °FScattered clouds.14 mph75%29.80 "Hg3 mi
10:30 AM88 °FScattered clouds.13 mph75%29.80 "Hg3 mi
10:00 AM88 °FHaze.12 mph70%29.80 "Hg3 mi
9:30 AM88 °FScattered clouds.13 mph75%29.80 "Hg3 mi
9:00 AM86 °FScattered clouds.9 mph79%29.80 "Hg2 mi
8:30 AM84 °FScattered clouds.9 mph84%29.80 "Hg2 mi
8:00 AM82 °FFog.7 mph94%29.80 "Hg1 mi
7:30 AM81 °FFog.5 mph94%29.80 "Hg1 mi
7:00 AM79 °FFog.No wind100%29.77 "Hg1 mi
6:30 AM81 °FFog.3 mph94%29.77 "Hg2 mi
6:00 AM81 °FFog.3 mph94%29.74 "Hg2 mi
5:00 AM79 °FFog.3 mph94%29.74 "Hg1 mi
4:30 AM79 °FFog.No wind94%29.74 "Hg1 mi
4:00 AM79 °FFog.3 mph94%29.74 "Hg1 mi
3:30 AM79 °FFog.3 mph94%29.74 "Hg1 mi
3:00 AM81 °FPassing clouds.No wind94%29.74 "Hg1 mi
2:30 AM81 °FPassing clouds.2 mph89%29.74 "Hg1 mi
2:00 AM81 °FPassing clouds.3 mph94%29.74 "Hg1 mi
1:30 AM81 °FPassing clouds.5 mph94%29.74 "Hg1 mi
1:00 AM81 °FPassing clouds.5 mph94%29.77 "Hg2 mi
12:30 AM82 °FPassing clouds.3 mph89%29.77 "Hg2 mi
12:00 AM82 °FPassing clouds.5 mph89%29.80 "Hg2 mi
11:30 PM
Thu, Jun 30
82 °FPassing clouds.6 mph89%29.80 "Hg2 mi
11:00 PM82 °FPassing clouds.6 mph89%29.80 "Hg2 mi
10:30 PM82 °FPassing clouds.5 mph89%29.80 "Hg2 mi
10:00 PM82 °FPassing clouds.3 mph89%29.80 "Hg2 mi
Weather by CustomWeather, © 2016

See weather overviewHow to use our weather pages